Location: Oberkirch
(48.5323°N, 8.0787°E)
Time: 17:59:10
(UTC+00:00)

Timation 2 Rocket - Pass Details

Date: 08 November 2025
Orbit: 904 x 1074 km, 70.0° (Epoch: 10 December)

Event Time Altitude Azimuth Distance (km) Brightness Sun altitude
Exits shadow 04:14:48 16° 328° (NNW) 2,452 5.8 -21.7°
Maximum altitude 04:20:23 82° 244° (WSW) 1,030 4.0 -20.8°
Drops below altitude 10° 04:26:47 10° 157° (SSE) 2,730 6.7 -19.7°
Sets 04:29:16 0° 156° (SSE) 3,649 7.4 -19.3°
